Torna al catalogo

USA 173 DEB

AttivoLEO
NORAD 28097·DEBRIS·🇺🇸 United States

Lanciato Dec 2, 2003 da Vandenberg Space Force Base

Loading…

Prossimi Passaggi (prossime 24 ore)

TLE

In scadenzaSource: Mike McCants

Epoca: Sep 10, 2026, 01:44 UTC

1 28097U 03054C   26253.07289672 0.00000060  00000-0  36307-4 0    09
2 28097  63.3830 328.8604 0603047   8.1256 351.8744 13.41321231    07

Traccia USA 173 DEB in tempo reale con AllMySat

Download on the App Store